CZ-6A DEB, 54433

Orbit data source: Space-Track

CZ-6A DEB, 54433 is space debris in SSO originally from a launch on Fri, 11 Nov 2022 UTC launched from the Taiyaun Space Center, China (TSC). Debris objects in space refer to the collection of defunct objects orbiting the Earth. Examples of debris include non-operational satellites, rocket bodies, and fragments generated from explosions, collisions, or faulty payload assembly.

Loading next visibility...
Identifier
54433, 2022-151FH
Orbit
SSO
Country
Flag of CNCN / PRC
Related business
Manufacturer
SAST
Mission
Spacecraft
Bus & Motor
Unknown
Mass
Unknown
Launch date (UTC)
2022-11-11 (4 years ago)
Launch vehicle
Unknown
Launch site
Taiyaun Space Center, China (TSC)
Object type
Payload
Rocket body
Debris
Shape & HBR
Unknown shape, 0.1 m
Radar Cross Section
Small (<0.1 m²)

Expand to show TLE details & history
Last TLE update: 1 day ago

TLE from 1 day ago
0 CZ-6A DEB
1 54433U 22151FH  26143.81733628  .00000098  00000-0  14004-3 0  9993
2 54433  99.2471  99.1295 0259818 327.8535  30.6991 13.64610890175474
Epoch: 2026-05-23T19:36Z
TLE epoch observation values (Epoch: 2026-05-23T19:36:57.854Z)
Latitude
-0.00002°
Longitude
-76.53995°
Altitude
857.866 km
Speed
7.505 km/s
True Right ascension
06h 36m 31s
True Declination
0° 00' 00"
Sunlit
Object was in daylight at epoch
Visualization orbit readout
Latitude
Unknown
Longitude
Unknown
Altitude
Unknown
Speed
Unknown
Apparent Right ascension
Unknown
Apparent Declination
Unknown
Sunlit
N/A
Visualization observer readout
Local Sidereal Time
09:57:02
Azimuth
Unknown
Elevation
Unknown
Doppler factor
Unknown
Orbital elements
Apogee altitude
1,208.358 km
Perigee altitude
824.119 km
Semi-major axis
7,394.375 km
Eccentricity
0.02598
Inclination
99.2471°
RAAN
99.1295°
Arg. of periapsis
327.8535°
True anomaly
32.26252°
Mean anomaly
30.6991°
Eccentric anomaly
31.47639°
Mean motion
3.41343 °/min
Orbital period
105.47 mins
BSTAR
0.00014004
Loading maneuver chart data...
Computing Atmospheric mass density...
Loading historical data...
Loading historical data...
Loading historical data...
Loading historical data...
Loading historical data...
Loading historical data...
Loading historical data...

Documentation

Showing up to 5 results
|